User: anonymous   Login
Location: Arrodets-la-Barthe
(43.0306°N, 0.2829°E)
Time: 17:30:38
(UTC+00:00)
Language:

NOSS 2-3 (D) - Orbit

View from above orbital plane
View from above orbital plane
View from above satellite
View from above satellite

Ground track
Ground track

The orbit data is extracted from the following two-line orbital elements,

1 23862U 96029D   22014.18337256 0.00000060  00000-0  19480-4 0    06
2 23862  63.3467  68.1625 0748569  28.3940 331.6060 13.40975477    01
Epoch (UTC): 14 January 2022 04:24:03
Eccentricity: 0.0748569
inclination: 63.3467°
perigee height: 545 km
apogee height: 1666 km
right ascension of ascending node: 68.1625°
argument of perigee: 28.3940°
revolutions per day: 13.40975477
mean anomaly at epoch: 331.6060°
orbit number at epoch: 0

The dashed part of the orbit path shows where the satellite is in the earth's shadow,  

DLR